CZ-2D R/B

Last updated on Sat Jun 14 2025 00:02:14 GMT+0000 (Coordinated Universal Time)

1 28738U 05024B 25164.58760129 .00028305 00000+0 62699-3 0 9997 2 28738 97.3667 168.6405 0004025 295.4717 64.6114 15.43732686 98086
UTC large
Height (km)
Speed (km/s)
/
Latitude / Longitude
Inclination (degrees)
Orbital Period (minutes)
Azimuth
Elevation
Range (km)
Doppler Factor

Next 0 passes for location: London (51.5072 / 0.1276)

Sorry there are no passes over London.